Year,Month,Day,Hour,Minute,Value (Times are PST for temperature in C)
2009,04,27,00,00,6.00
2009,04,27,00,01,6.00
2009,04,27,00,02,6.10
2009,04,27,00,03,6.10
2009,04,27,00,04,6.10
2009,04,27,00,05,6.10
2009,04,27,00,06,6.10
2009,04,27,00,07,6.10
2009,04,27,00,08,6.00
2009,04,27,00,09,6.00
2009,04,27,00,10,6.00
2009,04,27,00,11,5.90
2009,04,27,00,12,5.90
2009,04,27,00,13,5.90
2009,04,27,00,14,5.90
2009,04,27,00,15,5.90
2009,04,27,00,16,5.90
2009,04,27,00,17,5.90
2009,04,27,00,18,6.00
2009,04,27,00,19,6.00
2009,04,27,00,20,6.00
2009,04,27,00,21,6.00
2009,04,27,00,22,6.00
2009,04,27,00,23,6.00
2009,04,27,00,24,6.00
2009,04,27,00,25,5.90
2009,04,27,00,26,5.90
2009,04,27,00,27,5.90
2009,04,27,00,28,5.90
2009,04,27,00,29,5.90
2009,04,27,00,30,5.90
2009,04,27,00,31,5.90
2009,04,27,00,32,5.90
2009,04,27,00,33,5.90
2009,04,27,00,34,5.90
2009,04,27,00,35,5.80
2009,04,27,00,36,5.80
2009,04,27,00,37,5.80
2009,04,27,00,38,5.80
2009,04,27,00,39,5.80
2009,04,27,00,40,5.80
2009,04,27,00,41,5.80
2009,04,27,00,42,5.70
2009,04,27,00,43,5.70
2009,04,27,00,44,5.70
2009,04,27,00,45,5.70
2009,04,27,00,46,5.70
2009,04,27,00,47,5.70
2009,04,27,00,48,5.80
2009,04,27,00,49,5.80
2009,04,27,00,50,5.80
2009,04,27,00,51,5.80
2009,04,27,00,52,5.80
2009,04,27,00,53,5.80
2009,04,27,00,54,5.90
2009,04,27,00,55,5.90
2009,04,27,00,56,5.90
2009,04,27,00,57,6.00
2009,04,27,00,58,6.00
2009,04,27,00,59,6.00
2009,04,27,01,00,6.00
2009,04,27,01,01,6.00
2009,04,27,01,02,6.00
2009,04,27,01,03,6.00
2009,04,27,01,04,6.00
2009,04,27,01,05,6.00
2009,04,27,01,06,6.00
2009,04,27,01,07,6.00
2009,04,27,01,08,6.00
2009,04,27,01,09,6.00
2009,04,27,01,10,6.00
2009,04,27,01,11,6.00
2009,04,27,01,12,6.00
2009,04,27,01,13,5.90
2009,04,27,01,14,5.90
2009,04,27,01,15,5.90
2009,04,27,01,16,5.90
2009,04,27,01,17,6.00
2009,04,27,01,18,6.00
2009,04,27,01,19,6.00
2009,04,27,01,20,6.00
2009,04,27,01,21,6.00
2009,04,27,01,22,6.00
2009,04,27,01,23,6.00
2009,04,27,01,24,5.90
2009,04,27,01,25,5.90
2009,04,27,01,26,5.90
2009,04,27,01,27,5.90
2009,04,27,01,28,5.80
2009,04,27,01,29,5.80
2009,04,27,01,30,5.80
2009,04,27,01,31,5.80
2009,04,27,01,32,5.80
2009,04,27,01,33,5.80
2009,04,27,01,34,5.70
2009,04,27,01,35,5.70
2009,04,27,01,36,5.70
2009,04,27,01,37,5.70
2009,04,27,01,38,5.70
2009,04,27,01,39,5.70
2009,04,27,01,40,5.70
2009,04,27,01,41,5.60
2009,04,27,01,42,5.60
2009,04,27,01,43,5.60
2009,04,27,01,44,5.60
2009,04,27,01,45,5.60
2009,04,27,01,46,5.60
2009,04,27,01,47,5.60
2009,04,27,01,48,5.60
2009,04,27,01,49,5.60
2009,04,27,01,50,5.60
2009,04,27,01,51,5.60
2009,04,27,01,52,5.60
2009,04,27,01,53,5.60
2009,04,27,01,54,5.60
2009,04,27,01,55,5.60
2009,04,27,01,56,5.60
2009,04,27,01,57,5.70
2009,04,27,01,58,5.70
2009,04,27,01,59,5.70
2009,04,27,02,00,5.70
2009,04,27,02,01,5.70
2009,04,27,02,02,5.80
2009,04,27,02,03,5.80
2009,04,27,02,04,5.80
2009,04,27,02,05,5.80
2009,04,27,02,06,5.80
2009,04,27,02,07,5.80
2009,04,27,02,08,5.80
2009,04,27,02,09,5.80
2009,04,27,02,10,5.80
2009,04,27,02,11,5.80
2009,04,27,02,12,5.90
2009,04,27,02,13,5.90
2009,04,27,02,14,5.90
2009,04,27,02,15,5.90
2009,04,27,02,16,5.90
2009,04,27,02,17,5.90
2009,04,27,02,18,5.90
2009,04,27,02,19,5.90
2009,04,27,02,20,5.90
2009,04,27,02,21,5.80
2009,04,27,02,22,5.80
2009,04,27,02,23,5.80
2009,04,27,02,24,5.80
2009,04,27,02,25,5.80
2009,04,27,02,26,5.80
2009,04,27,02,27,5.80
2009,04,27,02,28,5.80
2009,04,27,02,29,5.80
2009,04,27,02,30,5.80
2009,04,27,02,31,5.80
2009,04,27,02,32,5.80
2009,04,27,02,33,5.80
2009,04,27,02,34,5.70
2009,04,27,02,35,5.70
2009,04,27,02,36,5.70
2009,04,27,02,37,5.70
2009,04,27,02,38,5.70
2009,04,27,02,39,5.70
2009,04,27,02,40,5.70
2009,04,27,02,41,5.80
2009,04,27,02,42,5.70
2009,04,27,02,43,5.70
2009,04,27,02,44,5.70
2009,04,27,02,45,5.70
2009,04,27,02,46,5.70
2009,04,27,02,47,5.70
2009,04,27,02,48,5.70
2009,04,27,02,49,5.70
2009,04,27,02,50,5.70
2009,04,27,02,51,5.70
2009,04,27,02,52,5.70
2009,04,27,02,53,5.70
2009,04,27,02,54,5.80
2009,04,27,02,55,5.80
2009,04,27,02,56,5.90
2009,04,27,02,57,5.90
2009,04,27,02,58,5.90
2009,04,27,02,59,6.00
2009,04,27,03,00,6.00
2009,04,27,03,01,6.10
2009,04,27,03,02,6.10
2009,04,27,03,03,6.10
2009,04,27,03,04,6.10
2009,04,27,03,05,6.10
2009,04,27,03,06,6.10
2009,04,27,03,07,6.10
2009,04,27,03,08,6.10
2009,04,27,03,09,6.10
2009,04,27,03,10,6.00
2009,04,27,03,11,6.00
2009,04,27,03,12,5.90
2009,04,27,03,13,5.90
2009,04,27,03,14,5.90
2009,04,27,03,15,5.80
2009,04,27,03,16,5.80
2009,04,27,03,17,5.80
2009,04,27,03,18,5.70
2009,04,27,03,19,5.70
2009,04,27,03,20,5.70
2009,04,27,03,21,5.70
2009,04,27,03,22,5.70
2009,04,27,03,23,5.80
2009,04,27,03,24,5.80
2009,04,27,03,25,5.80
2009,04,27,03,26,5.80
2009,04,27,03,27,5.80
2009,04,27,03,28,5.80
2009,04,27,03,29,5.80
2009,04,27,03,30,5.90
2009,04,27,03,31,5.90
2009,04,27,03,32,5.90
2009,04,27,03,33,6.00
2009,04,27,03,34,6.00
2009,04,27,03,35,6.10
2009,04,27,03,36,6.10
2009,04,27,03,37,6.10
2009,04,27,03,38,6.20
2009,04,27,03,39,6.20
2009,04,27,03,40,6.20
2009,04,27,03,41,6.20
2009,04,27,03,42,6.20
2009,04,27,03,43,6.20
2009,04,27,03,44,6.20
2009,04,27,03,45,6.20
2009,04,27,03,46,6.20
2009,04,27,03,47,6.30
2009,04,27,03,48,6.30
2009,04,27,03,49,6.30
2009,04,27,03,50,6.30
2009,04,27,03,51,6.40
2009,04,27,03,52,6.40
2009,04,27,03,53,6.50
2009,04,27,03,54,6.50
2009,04,27,03,55,6.50
2009,04,27,03,56,6.60
2009,04,27,03,57,6.60
2009,04,27,03,58,6.60
2009,04,27,03,59,6.60
2009,04,27,04,00,6.70
2009,04,27,04,01,6.70
2009,04,27,04,02,6.80
2009,04,27,04,03,6.80
2009,04,27,04,04,6.90
2009,04,27,04,05,6.90
2009,04,27,04,06,6.90
2009,04,27,04,07,6.90
2009,04,27,04,08,6.90
2009,04,27,04,09,6.90
2009,04,27,04,10,6.90
2009,04,27,04,11,6.90
2009,04,27,04,12,6.90
2009,04,27,04,13,6.90
2009,04,27,04,14,6.80
2009,04,27,04,15,6.80
2009,04,27,04,16,6.80
2009,04,27,04,17,6.80
2009,04,27,04,18,6.80
2009,04,27,04,19,6.80
2009,04,27,04,20,6.80
2009,04,27,04,21,6.80
2009,04,27,04,22,6.80
2009,04,27,04,23,6.80
2009,04,27,04,24,6.90
2009,04,27,04,25,6.90
2009,04,27,04,26,6.90
2009,04,27,04,27,7.00
2009,04,27,04,28,7.00
2009,04,27,04,29,7.00
2009,04,27,04,30,7.10
2009,04,27,04,31,7.10
2009,04,27,04,32,7.10
2009,04,27,04,33,7.00
2009,04,27,04,34,7.00
2009,04,27,04,35,7.00
2009,04,27,04,36,7.00
2009,04,27,04,37,7.00
2009,04,27,04,38,7.00
2009,04,27,04,39,7.00
2009,04,27,04,40,7.00
2009,04,27,04,41,7.00
2009,04,27,04,42,7.00
2009,04,27,04,43,7.00
2009,04,27,04,44,7.00
2009,04,27,04,45,7.00
2009,04,27,04,46,7.00
2009,04,27,04,47,7.00
2009,04,27,04,48,7.00
2009,04,27,04,49,7.00
2009,04,27,04,50,7.00
2009,04,27,04,51,7.10
2009,04,27,04,52,7.10
2009,04,27,04,53,7.10
2009,04,27,04,54,7.10
2009,04,27,04,55,7.10
2009,04,27,04,56,7.20
2009,04,27,04,57,7.20
2009,04,27,04,58,7.20
2009,04,27,04,59,7.20
2009,04,27,05,00,7.20
2009,04,27,05,01,7.20
2009,04,27,05,02,7.20
2009,04,27,05,03,7.20
2009,04,27,05,04,7.20
2009,04,27,05,05,7.20
2009,04,27,05,06,7.20
2009,04,27,05,07,7.20
2009,04,27,05,08,7.20
2009,04,27,05,09,7.20
2009,04,27,05,10,7.20
2009,04,27,05,11,7.10
2009,04,27,05,12,7.10
2009,04,27,05,13,7.20
2009,04,27,05,14,7.20
2009,04,27,05,15,7.20
2009,04,27,05,16,7.10
2009,04,27,05,17,7.10
2009,04,27,05,18,7.10
2009,04,27,05,19,7.10
2009,04,27,05,20,7.10
2009,04,27,05,21,7.00
2009,04,27,05,22,7.00
2009,04,27,05,23,7.00
2009,04,27,05,24,7.00
2009,04,27,05,25,7.00
2009,04,27,05,26,7.00
2009,04,27,05,27,7.00
2009,04,27,05,28,7.00
2009,04,27,05,29,7.00
2009,04,27,05,30,7.00
2009,04,27,05,31,7.00
2009,04,27,05,32,7.00
2009,04,27,05,33,7.00
2009,04,27,05,34,7.00
2009,04,27,05,35,7.00
2009,04,27,05,36,7.00
2009,04,27,05,37,7.10
2009,04,27,05,38,7.10
2009,04,27,05,39,7.10
2009,04,27,05,40,7.10
2009,04,27,05,41,7.10
2009,04,27,05,42,7.10
2009,04,27,05,43,7.10
2009,04,27,05,44,7.10
2009,04,27,05,45,7.00
2009,04,27,05,46,7.00
2009,04,27,05,47,7.10
2009,04,27,05,48,7.00
2009,04,27,05,49,7.10
2009,04,27,05,50,7.10
2009,04,27,05,51,7.10
2009,04,27,05,52,7.10
2009,04,27,05,53,7.10
2009,04,27,05,54,7.10
2009,04,27,05,55,7.10
2009,04,27,05,56,7.10
2009,04,27,05,57,7.20
2009,04,27,05,58,7.20
2009,04,27,05,59,7.20
2009,04,27,06,00,7.20
2009,04,27,06,01,7.20
2009,04,27,06,02,7.20
2009,04,27,06,03,7.20
2009,04,27,06,04,7.20
2009,04,27,06,05,7.20
2009,04,27,06,06,7.20
2009,04,27,06,07,7.20
2009,04,27,06,08,7.20
2009,04,27,06,09,7.20
2009,04,27,06,10,7.20
2009,04,27,06,11,7.20
2009,04,27,06,12,7.30
2009,04,27,06,13,7.30
2009,04,27,06,14,7.30
2009,04,27,06,15,7.30
2009,04,27,06,16,7.30
2009,04,27,06,17,7.30
2009,04,27,06,18,7.30
2009,04,27,06,19,7.30
2009,04,27,06,20,7.30
2009,04,27,06,21,7.30
2009,04,27,06,22,7.30
2009,04,27,06,23,7.30
2009,04,27,06,24,7.40
2009,04,27,06,25,7.40
2009,04,27,06,26,7.30
2009,04,27,06,27,7.40
2009,04,27,06,28,7.40
2009,04,27,06,29,7.40
2009,04,27,06,30,7.40
2009,04,27,06,31,7.40
2009,04,27,06,32,7.40
2009,04,27,06,33,7.40
2009,04,27,06,34,7.40
2009,04,27,06,35,7.40
2009,04,27,06,36,7.40
2009,04,27,06,37,7.50
2009,04,27,06,38,7.50
2009,04,27,06,39,7.50
2009,04,27,06,40,7.40
2009,04,27,06,41,7.40
2009,04,27,06,42,7.40
2009,04,27,06,43,7.40
2009,04,27,06,44,7.40
2009,04,27,06,45,7.50
2009,04,27,06,46,7.50
2009,04,27,06,47,7.60
2009,04,27,06,48,7.60
2009,04,27,06,49,7.60
2009,04,27,06,50,7.60
2009,04,27,06,51,7.60
2009,04,27,06,52,7.60
2009,04,27,06,53,7.60
2009,04,27,06,54,7.60
2009,04,27,06,55,7.60
2009,04,27,06,56,7.70
2009,04,27,06,57,7.70
2009,04,27,06,58,7.70
2009,04,27,06,59,7.70
2009,04,27,07,00,7.70
2009,04,27,07,01,7.70
2009,04,27,07,02,7.70
2009,04,27,07,03,7.70
2009,04,27,07,04,7.70
2009,04,27,07,05,7.70
2009,04,27,07,06,7.70
2009,04,27,07,07,7.70
2009,04,27,07,08,7.80
2009,04,27,07,09,7.80
2009,04,27,07,10,7.80
2009,04,27,07,11,7.80
2009,04,27,07,12,7.80
2009,04,27,07,13,7.80
2009,04,27,07,14,7.80
2009,04,27,07,15,7.80
2009,04,27,07,16,7.80
2009,04,27,07,17,7.80
2009,04,27,07,18,7.80
2009,04,27,07,19,7.80
2009,04,27,07,20,7.80
2009,04,27,07,21,7.90
2009,04,27,07,22,7.90
2009,04,27,07,23,7.90
2009,04,27,07,24,7.90
2009,04,27,07,25,7.90
2009,04,27,07,26,8.00
2009,04,27,07,27,8.00
2009,04,27,07,28,8.00
2009,04,27,07,29,8.00
2009,04,27,07,30,8.10
2009,04,27,07,31,8.10
2009,04,27,07,32,8.10
2009,04,27,07,33,8.10
2009,04,27,07,34,8.20
2009,04,27,07,35,8.20
2009,04,27,07,36,8.20
2009,04,27,07,37,8.20
2009,04,27,07,38,8.20
2009,04,27,07,39,8.20
2009,04,27,07,40,8.20
2009,04,27,07,41,8.30
2009,04,27,07,42,8.30
2009,04,27,07,43,8.30
2009,04,27,07,44,8.30
2009,04,27,07,45,8.30
2009,04,27,07,46,8.40
2009,04,27,07,47,8.40
2009,04,27,07,48,8.40
2009,04,27,07,49,8.40
2009,04,27,07,50,8.40
2009,04,27,07,51,8.50
2009,04,27,07,52,8.50
2009,04,27,07,53,8.50
2009,04,27,07,54,8.50
2009,04,27,07,55,8.50
2009,04,27,07,56,8.60
2009,04,27,07,57,8.60
2009,04,27,07,58,8.60
2009,04,27,07,59,8.60
2009,04,27,08,00,8.70
2009,04,27,08,01,8.70
2009,04,27,08,02,8.70
2009,04,27,08,03,8.80
2009,04,27,08,04,8.90
2009,04,27,08,05,8.90
2009,04,27,08,06,8.90
2009,04,27,08,07,8.90
2009,04,27,08,08,8.90
2009,04,27,08,09,9.00
2009,04,27,08,10,9.00
2009,04,27,08,11,9.10
2009,04,27,08,12,9.10
2009,04,27,08,13,9.10
2009,04,27,08,14,9.10
2009,04,27,08,15,9.10
2009,04,27,08,16,9.20
2009,04,27,08,17,9.20
2009,04,27,08,18,9.20
2009,04,27,08,19,9.30
2009,04,27,08,20,9.30
2009,04,27,08,21,9.40
2009,04,27,08,22,9.40
2009,04,27,08,23,9.40
2009,04,27,08,24,9.50
2009,04,27,08,25,9.50
2009,04,27,08,26,9.50
2009,04,27,08,27,9.60
2009,04,27,08,28,9.60
2009,04,27,08,29,9.60
2009,04,27,08,30,9.70
2009,04,27,08,31,9.80
2009,04,27,08,32,9.90
2009,04,27,08,33,10.00
2009,04,27,08,34,10.00
2009,04,27,08,35,10.00
2009,04,27,08,36,10.10
2009,04,27,08,37,10.10
2009,04,27,08,38,10.00
2009,04,27,08,39,10.00
2009,04,27,08,40,10.00
2009,04,27,08,41,9.90
2009,04,27,08,42,9.90
2009,04,27,08,43,9.90
2009,04,27,08,44,9.90
2009,04,27,08,45,9.90
2009,04,27,08,46,9.90
2009,04,27,08,47,9.90
2009,04,27,08,48,9.90
2009,04,27,08,49,9.90
2009,04,27,08,50,9.90
2009,04,27,08,51,9.90
2009,04,27,08,52,10.00
2009,04,27,08,53,10.10
2009,04,27,08,54,10.10
2009,04,27,08,55,10.10
2009,04,27,08,56,10.20
2009,04,27,08,57,10.20
2009,04,27,08,58,10.30
2009,04,27,08,59,10.30
2009,04,27,09,00,10.40
2009,04,27,09,01,10.40
2009,04,27,09,02,10.50
2009,04,27,09,03,10.50
2009,04,27,09,04,10.50
2009,04,27,09,05,10.60
2009,04,27,09,06,10.60
2009,04,27,09,07,10.60
2009,04,27,09,08,10.60
2009,04,27,09,09,10.60
2009,04,27,09,10,10.60
2009,04,27,09,11,10.60
2009,04,27,09,12,10.70
2009,04,27,09,13,10.60
2009,04,27,09,14,10.70
2009,04,27,09,15,10.70
2009,04,27,09,16,10.80
2009,04,27,09,17,10.80
2009,04,27,09,18,10.80
2009,04,27,09,19,10.80
2009,04,27,09,20,10.80
2009,04,27,09,21,10.90
2009,04,27,09,22,11.10
2009,04,27,09,23,11.20
2009,04,27,09,24,11.20
2009,04,27,09,25,11.30
2009,04,27,09,26,11.40
2009,04,27,09,27,11.30
2009,04,27,09,28,11.30
2009,04,27,09,29,11.30
2009,04,27,09,30,11.40
2009,04,27,09,31,11.50
2009,04,27,09,32,11.50
2009,04,27,09,33,11.60
2009,04,27,09,34,11.60
2009,04,27,09,35,11.60
2009,04,27,09,36,11.60
2009,04,27,09,37,11.60
2009,04,27,09,38,11.60
2009,04,27,09,39,11.60
2009,04,27,09,40,11.70
2009,04,27,09,41,11.70
2009,04,27,09,42,11.70
2009,04,27,09,43,11.70
2009,04,27,09,44,11.80
2009,04,27,09,45,11.80
2009,04,27,09,46,11.70
2009,04,27,09,47,11.70
2009,04,27,09,48,11.70
2009,04,27,09,49,11.60
2009,04,27,09,50,11.60
2009,04,27,09,51,11.60
2009,04,27,09,52,11.60
2009,04,27,09,53,11.70
2009,04,27,09,54,11.70
2009,04,27,09,55,11.80
2009,04,27,09,56,11.80
2009,04,27,09,57,11.90
2009,04,27,09,58,11.90
2009,04,27,09,59,11.90
2009,04,27,10,00,11.90
2009,04,27,10,01,12.00
2009,04,27,10,02,12.00
2009,04,27,10,03,11.90
2009,04,27,10,04,12.00
2009,04,27,10,05,12.10
2009,04,27,10,06,12.20
2009,04,27,10,07,12.20
2009,04,27,10,08,12.10
2009,04,27,10,09,12.10
2009,04,27,10,10,12.10
2009,04,27,10,11,12.10
2009,04,27,10,12,12.20
2009,04,27,10,13,12.20
2009,04,27,10,14,12.30
2009,04,27,10,15,12.30
2009,04,27,10,16,12.30
2009,04,27,10,17,12.30
2009,04,27,10,18,12.30
2009,04,27,10,19,12.30
2009,04,27,10,20,12.30
2009,04,27,10,21,12.40
2009,04,27,10,22,12.40
2009,04,27,10,23,12.40
2009,04,27,10,24,12.40
2009,04,27,10,25,12.50
2009,04,27,10,26,12.50
2009,04,27,10,27,12.50
2009,04,27,10,28,12.50
2009,04,27,10,29,12.50
2009,04,27,10,30,12.50
2009,04,27,10,31,12.60
2009,04,27,10,32,12.60
2009,04,27,10,33,12.70
2009,04,27,10,34,12.80
2009,04,27,10,35,12.90
2009,04,27,10,36,12.90
2009,04,27,10,37,12.90
2009,04,27,10,38,12.80
2009,04,27,10,39,12.70
2009,04,27,10,40,12.60
2009,04,27,10,41,12.70
2009,04,27,10,42,12.80
2009,04,27,10,43,12.80
2009,04,27,10,44,12.80
2009,04,27,10,45,12.80
2009,04,27,10,46,12.70
2009,04,27,10,47,12.70
2009,04,27,10,48,12.70
2009,04,27,10,49,12.70
2009,04,27,10,50,12.70
2009,04,27,10,51,12.80
2009,04,27,10,52,12.90
2009,04,27,10,53,13.00
2009,04,27,10,54,13.10
2009,04,27,10,55,13.20
2009,04,27,10,56,13.10
2009,04,27,10,57,13.10
2009,04,27,10,58,13.10
2009,04,27,10,59,13.10
2009,04,27,11,00,13.20
2009,04,27,11,01,13.20
2009,04,27,11,02,13.20
2009,04,27,11,03,13.20
2009,04,27,11,04,13.40
2009,04,27,11,05,13.50
2009,04,27,11,06,13.70
2009,04,27,11,07,13.80
2009,04,27,11,08,13.90
2009,04,27,11,09,13.90
2009,04,27,11,10,13.90
2009,04,27,11,11,13.90
2009,04,27,11,12,13.90
2009,04,27,11,13,13.90
2009,04,27,11,14,13.90
2009,04,27,11,15,13.90
2009,04,27,11,16,13.90
2009,04,27,11,17,13.90
2009,04,27,11,18,13.90
2009,04,27,11,19,13.90
2009,04,27,11,20,13.90
2009,04,27,11,21,13.80
2009,04,27,11,22,13.70
2009,04,27,11,23,13.70
2009,04,27,11,24,13.60
2009,04,27,11,25,13.60
2009,04,27,11,26,13.70
2009,04,27,11,27,13.80
2009,04,27,11,28,13.90
2009,04,27,11,29,14.00
2009,04,27,11,30,14.00
2009,04,27,11,31,14.00
2009,04,27,11,32,14.00
2009,04,27,11,33,14.10
2009,04,27,11,34,14.00
2009,04,27,11,35,14.00
2009,04,27,11,36,14.10
2009,04,27,11,37,14.00
2009,04,27,11,38,14.10
2009,04,27,11,39,14.30
2009,04,27,11,40,14.50
2009,04,27,11,41,14.50
2009,04,27,11,42,14.50
2009,04,27,11,43,14.40
2009,04,27,11,44,14.40
2009,04,27,11,45,14.40
2009,04,27,11,46,14.30
2009,04,27,11,47,14.20
2009,04,27,11,48,14.10
2009,04,27,11,49,14.10
2009,04,27,11,50,14.10
2009,04,27,11,51,14.10
2009,04,27,11,52,14.10
2009,04,27,11,53,14.10
2009,04,27,11,54,14.10
2009,04,27,11,55,14.00
2009,04,27,11,56,14.00
2009,04,27,11,57,14.00
2009,04,27,11,58,13.90
2009,04,27,11,59,13.80
2009,04,27,12,00,13.70
2009,04,27,12,01,13.50
2009,04,27,12,02,13.50
2009,04,27,12,03,13.50
2009,04,27,12,04,13.50
2009,04,27,12,05,13.60
2009,04,27,12,06,13.70
2009,04,27,12,07,13.80
2009,04,27,12,08,13.90
2009,04,27,12,09,14.00
2009,04,27,12,10,14.00
2009,04,27,12,11,14.10
2009,04,27,12,12,14.10
2009,04,27,12,13,14.10
2009,04,27,12,14,14.20
2009,04,27,12,15,14.20
2009,04,27,12,16,14.40
2009,04,27,12,17,14.40
2009,04,27,12,18,14.50
2009,04,27,12,19,14.50
2009,04,27,12,20,14.40
2009,04,27,12,21,14.30
2009,04,27,12,22,14.20
2009,04,27,12,23,14.20
2009,04,27,12,24,14.30
2009,04,27,12,25,14.50
2009,04,27,12,26,14.60
2009,04,27,12,27,14.70
2009,04,27,12,28,14.80
2009,04,27,12,29,14.70
2009,04,27,12,30,14.60
2009,04,27,12,31,14.40
2009,04,27,12,32,14.30
2009,04,27,12,33,14.30
2009,04,27,12,34,14.30
2009,04,27,12,35,14.20
2009,04,27,12,36,14.20
2009,04,27,12,37,14.20
2009,04,27,12,38,14.20
2009,04,27,12,39,14.20
2009,04,27,12,40,14.20
2009,04,27,12,41,14.30
2009,04,27,12,42,14.30
2009,04,27,12,43,14.30
2009,04,27,12,44,14.30
2009,04,27,12,45,14.30
2009,04,27,12,46,14.30
2009,04,27,12,47,14.40
2009,04,27,12,48,14.50
2009,04,27,12,49,14.60
2009,04,27,12,50,14.70
2009,04,27,12,51,14.70
2009,04,27,12,52,14.80
2009,04,27,12,53,14.80
2009,04,27,12,54,14.70
2009,04,27,12,55,14.70
2009,04,27,12,56,14.70
2009,04,27,12,57,14.70
2009,04,27,12,58,14.70
2009,04,27,12,59,14.70
2009,04,27,13,00,14.60
2009,04,27,13,01,14.50
2009,04,27,13,02,14.30
2009,04,27,13,03,14.30
2009,04,27,13,04,14.30
2009,04,27,13,05,14.40
2009,04,27,13,06,14.60
2009,04,27,13,07,14.80
2009,04,27,13,08,15.00
2009,04,27,13,09,15.00
2009,04,27,13,10,15.00
2009,04,27,13,11,14.90
2009,04,27,13,12,15.00
2009,04,27,13,13,15.00
2009,04,27,13,14,15.00
2009,04,27,13,15,15.00
2009,04,27,13,16,15.00
2009,04,27,13,17,15.00
2009,04,27,13,18,14.90
2009,04,27,13,19,14.90
2009,04,27,13,20,15.00
2009,04,27,13,21,15.00
2009,04,27,13,22,15.00
2009,04,27,13,23,15.20
2009,04,27,13,24,15.30
2009,04,27,13,25,15.30
2009,04,27,13,26,15.30
2009,04,27,13,27,15.20
2009,04,27,13,28,15.30
2009,04,27,13,29,15.40
2009,04,27,13,30,15.40
2009,04,27,13,31,15.40
2009,04,27,13,32,15.50
2009,04,27,13,33,15.70
2009,04,27,13,34,15.80
2009,04,27,13,35,15.80
2009,04,27,13,36,15.70
2009,04,27,13,37,15.40
2009,04,27,13,38,15.20
2009,04,27,13,39,15.00
2009,04,27,13,40,15.00
2009,04,27,13,41,15.00
2009,04,27,13,42,15.00
2009,04,27,13,43,15.00
2009,04,27,13,44,15.00
2009,04,27,13,45,15.00
2009,04,27,13,46,15.00
2009,04,27,13,47,15.10
2009,04,27,13,48,15.30
2009,04,27,13,49,15.30
2009,04,27,13,50,15.30
2009,04,27,13,51,15.10
2009,04,27,13,52,15.00
2009,04,27,13,53,15.00
2009,04,27,13,54,15.00
2009,04,27,13,55,15.00
2009,04,27,13,56,15.00
2009,04,27,13,57,14.90
2009,04,27,13,58,14.80
2009,04,27,13,59,14.90
2009,04,27,14,00,14.90
2009,04,27,14,01,15.00
2009,04,27,14,02,15.00
2009,04,27,14,03,15.00
2009,04,27,14,04,15.00
2009,04,27,14,05,15.00
2009,04,27,14,06,15.00
2009,04,27,14,07,15.00
2009,04,27,14,08,15.00
2009,04,27,14,09,15.00
2009,04,27,14,10,15.00
2009,04,27,14,11,14.90
2009,04,27,14,12,14.90
2009,04,27,14,13,14.90
2009,04,27,14,14,14.90
2009,04,27,14,15,15.00
2009,04,27,14,16,15.00
2009,04,27,14,17,15.00
2009,04,27,14,18,15.00
2009,04,27,14,19,15.00
2009,04,27,14,20,15.00
2009,04,27,14,21,15.00
2009,04,27,14,22,15.00
2009,04,27,14,23,15.20
2009,04,27,14,24,15.30
2009,04,27,14,25,15.30
2009,04,27,14,26,15.40
2009,04,27,14,27,15.50
2009,04,27,14,28,15.50
2009,04,27,14,29,15.40
2009,04,27,14,30,15.40
2009,04,27,14,31,15.40
2009,04,27,14,32,15.40
2009,04,27,14,33,15.40
2009,04,27,14,34,15.30
2009,04,27,14,35,15.30
2009,04,27,14,36,15.40
2009,04,27,14,37,15.50
2009,04,27,14,38,15.50
2009,04,27,14,39,15.40
2009,04,27,14,40,15.30
2009,04,27,14,41,15.30
2009,04,27,14,42,15.30
2009,04,27,14,43,15.40
2009,04,27,14,44,15.50
2009,04,27,14,45,15.40
2009,04,27,14,46,15.40
2009,04,27,14,47,15.30
2009,04,27,14,48,15.30
2009,04,27,14,49,15.30
2009,04,27,14,50,15.30
2009,04,27,14,51,15.40
2009,04,27,14,52,15.50
2009,04,27,14,53,15.70
2009,04,27,14,54,15.80
2009,04,27,14,55,15.70
2009,04,27,14,56,15.60
2009,04,27,14,57,15.60
2009,04,27,14,58,15.60
2009,04,27,14,59,15.60
2009,04,27,15,00,15.60
2009,04,27,15,01,15.70
2009,04,27,15,02,15.70
2009,04,27,15,03,15.70
2009,04,27,15,04,15.80
2009,04,27,15,05,15.80
2009,04,27,15,06,15.70
2009,04,27,15,07,15.60
2009,04,27,15,08,15.50
2009,04,27,15,09,15.50
2009,04,27,15,10,15.50
2009,04,27,15,11,15.50
2009,04,27,15,12,15.50
2009,04,27,15,13,15.50
2009,04,27,15,14,15.60
2009,04,27,15,15,15.60
2009,04,27,15,16,15.60
2009,04,27,15,17,15.60
2009,04,27,15,18,15.70
2009,04,27,15,19,15.80
2009,04,27,15,20,15.80
2009,04,27,15,21,15.70
2009,04,27,15,22,15.70
2009,04,27,15,23,15.70
2009,04,27,15,24,15.60
2009,04,27,15,25,15.50
2009,04,27,15,26,15.40
2009,04,27,15,27,15.40
2009,04,27,15,28,15.50
2009,04,27,15,29,15.60
2009,04,27,15,30,15.70
2009,04,27,15,31,15.70
2009,04,27,15,32,15.80
2009,04,27,15,33,15.80
2009,04,27,15,34,15.80
2009,04,27,15,35,15.70
2009,04,27,15,36,15.70
2009,04,27,15,37,15.70
2009,04,27,15,38,15.70
2009,04,27,15,39,15.60
2009,04,27,15,40,15.60
2009,04,27,15,41,15.60
2009,04,27,15,42,15.60
2009,04,27,15,43,15.70
2009,04,27,15,44,15.80
2009,04,27,15,45,15.90
2009,04,27,15,46,15.80
2009,04,27,15,47,15.80
2009,04,27,15,48,15.80
2009,04,27,15,49,15.80
2009,04,27,15,50,15.70
2009,04,27,15,51,15.60
2009,04,27,15,52,15.60
2009,04,27,15,53,15.60
2009,04,27,15,54,15.70
2009,04,27,15,55,15.70
2009,04,27,15,56,15.70
2009,04,27,15,57,15.80
2009,04,27,15,58,15.80
2009,04,27,15,59,15.80
2009,04,27,16,00,15.80
2009,04,27,16,01,15.80
2009,04,27,16,02,15.90
2009,04,27,16,03,15.90
2009,04,27,16,04,15.90
2009,04,27,16,05,15.90
2009,04,27,16,06,15.90
2009,04,27,16,07,15.90
2009,04,27,16,08,15.90
2009,04,27,16,09,15.90
2009,04,27,16,10,15.90
2009,04,27,16,11,16.00
2009,04,27,16,12,16.10
2009,04,27,16,13,16.20
2009,04,27,16,14,16.20
2009,04,27,16,15,16.20
2009,04,27,16,16,16.20
2009,04,27,16,17,16.30
2009,04,27,16,18,16.30
2009,04,27,16,19,16.30
2009,04,27,16,20,16.30
2009,04,27,16,21,16.30
2009,04,27,16,22,16.20
2009,04,27,16,23,16.10
2009,04,27,16,24,16.00
2009,04,27,16,25,16.00
2009,04,27,16,26,16.00
2009,04,27,16,27,16.10
2009,04,27,16,28,16.20
2009,04,27,16,29,16.30
2009,04,27,16,30,16.40
2009,04,27,16,31,16.40
2009,04,27,16,32,16.50
2009,04,27,16,33,16.50
2009,04,27,16,34,16.60
2009,04,27,16,35,16.70
2009,04,27,16,36,16.70
2009,04,27,16,37,16.70
2009,04,27,16,38,16.70
2009,04,27,16,39,16.60
2009,04,27,16,40,16.60
2009,04,27,16,41,16.60
2009,04,27,16,42,16.60
2009,04,27,16,43,16.60
2009,04,27,16,44,16.60
2009,04,27,16,45,16.50
2009,04,27,16,46,16.40
2009,04,27,16,47,16.30
2009,04,27,16,48,16.40
2009,04,27,16,49,16.40
2009,04,27,16,50,16.40
2009,04,27,16,51,16.50
2009,04,27,16,52,16.50
2009,04,27,16,53,16.60
2009,04,27,16,54,16.60
2009,04,27,16,55,16.60
2009,04,27,16,56,16.40
2009,04,27,16,57,16.30
2009,04,27,16,58,16.10
2009,04,27,16,59,16.00
2009,04,27,17,00,16.00
2009,04,27,17,01,15.90
2009,04,27,17,02,16.00
2009,04,27,17,03,16.10
2009,04,27,17,04,16.10
2009,04,27,17,05,16.10
2009,04,27,17,06,16.20
2009,04,27,17,07,16.20
2009,04,27,17,08,16.20
2009,04,27,17,09,16.10
2009,04,27,17,10,16.10
2009,04,27,17,11,16.00
2009,04,27,17,12,16.00
2009,04,27,17,13,16.00
2009,04,27,17,14,16.10
2009,04,27,17,15,16.20
2009,04,27,17,16,16.20
2009,04,27,17,17,16.20
2009,04,27,17,18,16.20
2009,04,27,17,19,16.20
2009,04,27,17,20,16.30
2009,04,27,17,21,16.30
2009,04,27,17,22,16.40
2009,04,27,17,23,16.40
2009,04,27,17,24,16.50
2009,04,27,17,25,16.50
2009,04,27,17,26,16.50
2009,04,27,17,27,16.40
2009,04,27,17,28,16.30
2009,04,27,17,29,16.20
2009,04,27,17,30,16.20
2009,04,27,17,31,16.20
2009,04,27,17,32,16.20
2009,04,27,17,33,16.20
2009,04,27,17,34,16.10
2009,04,27,17,35,16.10
2009,04,27,17,36,16.10
2009,04,27,17,37,16.10
2009,04,27,17,38,16.20
2009,04,27,17,39,16.20
2009,04,27,17,40,16.20
2009,04,27,17,41,16.20
2009,04,27,17,42,16.20